This is the latest recevied weather packets stored in our database for station/object M3YFM-13. If no packets are shown the sender has not sent any weather packets the latest 1 day(s).
| Time | Temp. | Humidity | Pressure | Rain* | Wind** | Luminosity | Snow |
|---|---|---|---|---|---|---|---|
| 1778037861 | 8.89° C | 75% | - | 0 mm | 1.34 m/s, 89° | - | - |
| 1778037561 | 8.89° C | 74% | - | 0 mm | 1.79 m/s, 96° | - | - |
| 1778037261 | 8.89° C | 74% | - | 0 mm | 1.34 m/s, 120° | - | - |
| 1778036960 | 8.89° C | 75% | - | 0 mm | 1.34 m/s, 86° | - | - |
| 1778036660 | 8.89° C | 74% | - | 0 mm | 1.79 m/s, 94° | - | - |
| 1778036360 | 8.89° C | 73% | - | 0 mm | 0.89 m/s, 110° | - | - |
| 1778036060 | 8.89° C | 73% | - | 0 mm | 1.34 m/s, 82° | - | - |
| 1778035759 | 8.89° C | 72% | - | 0 mm | 0.89 m/s, 98° | - | - |
| 1778035459 | 8.89° C | 72% | - | 0 mm | 1.34 m/s, 83° | - | - |
| 1778035159 | 9.44° C | 72% | - | 0 mm | 0.89 m/s, 103° | - | - |
| 1778034858 | 9.44° C | 71% | - | 0 mm | 1.34 m/s, 118° | - | - |
| 1778034558 | 9.44° C | 71% | - | 0 mm | 0.45 m/s, 105° | - | - |
| 1778034258 | 9.44° C | 71% | - | 0 mm | 0.89 m/s, 111° | - | - |
| 1778033958 | 9.44° C | 71% | - | 0 mm | 1.34 m/s, 129° | - | - |
| 1778033657 | 9.44° C | 70% | - | 0 mm | 1.34 m/s, 122° | - | - |
| 1778033357 | 9.44° C | 70% | - | 0 mm | 0.89 m/s, 118° | - | - |
| 1778033057 | 10° C | 70% | - | 0 mm | 1.79 m/s, 80° | - | - |
| 1778032756 | 9.44° C | 70% | - | 0 mm | 0.89 m/s, 75° | - | - |
| 1778032456 | 10° C | 71% | - | 0 mm | 0.89 m/s, 149° | - | - |
| 1778032156 | 10° C | 71% | - | 0 mm | 1.79 m/s, 89° | - | - |
| 1778031856 | 10.56° C | 72% | - | 0 mm | 1.34 m/s, 90° | - | - |
| 1778031555 | 9.44° C | 72% | - | 0 mm | 1.79 m/s, 128° | - | - |
| 1778031255 | 9.44° C | 72% | - | 0 mm | 2.24 m/s, 110° | - | - |
| 1778030955 | 10° C | 72% | - | 0 mm | 2.24 m/s, 90° | - | - |
| 1778030655 | 10° C | 72% | - | 0 mm | 0.89 m/s, 97° | - | - |
* Rain since midnight (hover to see other rain measurements)
** Current wind speed in m/s (hover to see current wind gust speed)